TimeCDT,TemperatureF,Dew PointF,Humidity,Sea Level PressureIn,VisibilityMPH,Wind Direction,Wind SpeedMPH,Gust SpeedMPH,PrecipitationIn,Events,Conditions,WindDirDegrees,DateUTC
12:15 AM,60.8,48.4,64,30.01,10.0,SSW,4.6,-,N/A,,Clear,200,2013-03-17 05:15:00
12:35 AM,59.9,48.4,66,30.01,10.0,SSW,5.8,-,N/A,,Clear,210,2013-03-17 05:35:00
12:55 AM,59.9,48.4,66,30.01,10.0,SSW,4.6,-,N/A,,Clear,210,2013-03-17 05:55:00
1:15 AM,59.0,48.9,69,30.01,10.0,SSW,4.6,-,N/A,,Clear,210,2013-03-17 06:15:00
1:35 AM,57.2,47.7,70,30.01,10.0,SW,4.6,-,N/A,,Clear,220,2013-03-17 06:35:00
1:55 AM,57.2,48.2,72,30.01,10.0,SSW,3.5,-,N/A,,Clear,210,2013-03-17 06:55:00
2:15 AM,57.6,48.7,72,30.01,10.0,Calm,Calm,-,N/A,,Clear,0,2013-03-17 07:15:00
2:35 AM,56.5,50.0,79,30.00,10.0,Calm,Calm,-,N/A,,Clear,0,2013-03-17 07:35:00
2:55 AM,54.7,50.4,85,30.00,10.0,Calm,Calm,-,N/A,,Clear,0,2013-03-17 07:55:00
3:15 AM,54.7,50.9,87,30.00,10.0,Calm,Calm,-,N/A,,Clear,0,2013-03-17 08:15:00
3:35 AM,54.7,50.7,86,30.00,10.0,Calm,Calm,-,N/A,,Clear,0,2013-03-17 08:35:00
3:55 AM,53.4,49.5,86,29.99,10.0,Calm,Calm,-,N/A,,Clear,0,2013-03-17 08:55:00
4:15 AM,53.4,50.0,88,29.98,10.0,Calm,Calm,-,N/A,,Clear,0,2013-03-17 09:15:00
4:35 AM,50.5,47.3,89,29.98,10.0,Calm,Calm,-,N/A,,Clear,0,2013-03-17 09:35:00
4:55 AM,50.9,47.3,87,29.98,10.0,Calm,Calm,-,N/A,,Clear,0,2013-03-17 09:55:00
5:15 AM,49.6,46.0,87,29.99,10.0,Calm,Calm,-,N/A,,Clear,0,2013-03-17 10:15:00
5:35 AM,50.2,46.8,88,30.00,10.0,Calm,Calm,-,N/A,,Clear,0,2013-03-17 10:35:00
5:55 AM,50.9,47.7,89,30.01,7.0,Calm,Calm,-,N/A,,Clear,0,2013-03-17 10:55:00
6:15 AM,50.5,47.3,89,30.01,10.0,Calm,Calm,-,N/A,,Clear,0,2013-03-17 11:15:00
6:35 AM,50.2,46.6,87,30.01,10.0,Calm,Calm,-,N/A,,Clear,0,2013-03-17 11:35:00
6:55 AM,49.6,46.4,89,30.02,7.0,Calm,Calm,-,N/A,,Clear,0,2013-03-17 11:55:00
7:15 AM,50.7,47.7,89,30.02,7.0,Calm,Calm,-,N/A,,Clear,0,2013-03-17 12:15:00
7:35 AM,49.6,46.6,89,30.03,10.0,Calm,Calm,-,N/A,,Clear,0,2013-03-17 12:35:00
7:55 AM,51.4,48.2,89,30.03,10.0,Calm,Calm,-,N/A,,Clear,0,2013-03-17 12:55:00
8:15 AM,54.7,51.3,88,30.04,10.0,Calm,Calm,-,N/A,,Mostly Cloudy,0,2013-03-17 13:15:00
8:35 AM,57.2,53.8,88,30.03,10.0,Calm,Calm,-,N/A,,Overcast,0,2013-03-17 13:35:00
8:55 AM,57.4,53.8,88,30.04,10.0,Calm,Calm,-,N/A,,Mostly Cloudy,0,2013-03-17 13:55:00
9:15 AM,61.0,55.2,81,30.04,10.0,SSW,5.8,-,N/A,,Clear,210,2013-03-17 14:15:00
9:35 AM,62.8,54.5,74,30.04,10.0,SW,4.6,-,N/A,,Clear,230,2013-03-17 14:35:00
9:55 AM,64.8,55.2,71,30.04,10.0,SSW,6.9,-,N/A,,Clear,200,2013-03-17 14:55:00
10:15 AM,68.4,57.0,67,30.04,10.0,WSW,3.5,-,N/A,,Scattered Clouds,240,2013-03-17 15:15:00
10:35 AM,69.8,55.8,61,30.03,10.0,SW,8.1,-,N/A,,Mostly Cloudy,230,2013-03-17 15:35:00
10:55 AM,69.8,55.6,61,30.03,10.0,SW,10.4,-,N/A,,Mostly Cloudy,220,2013-03-17 15:55:00
11:15 AM,69.8,54.5,58,30.03,10.0,SW,8.1,-,N/A,,Scattered Clouds,230,2013-03-17 16:15:00
11:35 AM,69.8,54.0,57,30.02,10.0,SSW,11.5,17.3,N/A,,Mostly Cloudy,210,2013-03-17 16:35:00
11:55 AM,69.8,53.2,56,30.02,10.0,SSW,10.4,-,N/A,,Mostly Cloudy,210,2013-03-17 16:55:00
12:15 PM,69.8,52.0,53,30.02,10.0,SW,8.1,17.3,N/A,,Scattered Clouds,230,2013-03-17 17:15:00
12:35 PM,69.8,51.3,52,30.02,10.0,SW,8.1,16.1,N/A,,Scattered Clouds,230,2013-03-17 17:35:00
12:55 PM,69.8,51.1,51,30.01,10.0,SW,8.1,-,N/A,,Scattered Clouds,220,2013-03-17 17:55:00
1:15 PM,69.8,52.0,53,29.99,10.0,SW,9.2,-,N/A,,Scattered Clouds,220,2013-03-17 18:15:00
1:35 PM,72.5,52.9,50,29.98,10.0,SSW,11.5,-,N/A,,Scattered Clouds,210,2013-03-17 18:35:00
1:55 PM,71.4,52.0,50,29.97,10.0,SW,9.2,17.3,N/A,,Scattered Clouds,220,2013-03-17 18:55:00
2:15 PM,69.8,51.6,52,29.97,10.0,SW,8.1,17.3,N/A,,Mostly Cloudy,220,2013-03-17 19:15:00
2:35 PM,71.1,52.0,51,29.96,10.0,WSW,8.1,-,N/A,,Scattered Clouds,240,2013-03-17 19:35:00
2:55 PM,72.7,52.7,49,29.94,10.0,SW,10.4,-,N/A,,Clear,230,2013-03-17 19:55:00
3:15 PM,72.5,52.2,49,29.93,10.0,SW,6.9,-,N/A,,Clear,230,2013-03-17 20:15:00
3:35 PM,71.1,51.8,50,29.93,10.0,SSW,8.1,-,N/A,,Scattered Clouds,210,2013-03-17 20:35:00
3:55 PM,71.1,52.7,52,29.93,10.0,South,5.8,-,N/A,,Scattered Clouds,180,2013-03-17 20:55:00
4:15 PM,71.1,52.3,52,29.93,10.0,SSW,6.9,-,N/A,,Scattered Clouds,210,2013-03-17 21:15:00
4:35 PM,70.7,52.7,53,29.93,10.0,South,6.9,-,N/A,,Scattered Clouds,190,2013-03-17 21:35:00
4:55 PM,70.0,52.3,53,29.93,10.0,SSW,5.8,-,N/A,,Scattered Clouds,200,2013-03-17 21:55:00
5:15 PM,69.8,52.0,53,29.93,10.0,SSW,6.9,-,N/A,,Scattered Clouds,200,2013-03-17 22:15:00
5:35 PM,69.8,52.3,54,29.93,10.0,South,6.9,-,N/A,,Scattered Clouds,190,2013-03-17 22:35:00
5:55 PM,69.8,53.6,56,29.93,10.0,South,4.6,-,N/A,,Scattered Clouds,170,2013-03-17 22:55:00
6:15 PM,69.8,54.5,58,29.93,10.0,South,3.5,-,N/A,,Scattered Clouds,170,2013-03-17 23:15:00
6:35 PM,69.8,55.4,60,29.93,10.0,South,3.5,-,N/A,,Scattered Clouds,170,2013-03-17 23:35:00
6:55 PM,69.8,56.8,63,29.93,10.0,Calm,Calm,-,N/A,,Scattered Clouds,0,2013-03-17 23:55:00
7:15 PM,69.8,58.1,66,29.93,10.0,SSE,3.5,-,N/A,,Clear,150,2013-03-18 00:15:00
7:35 PM,67.3,56.5,68,29.93,10.0,SSE,3.5,-,N/A,,Clear,160,2013-03-18 00:35:00
7:55 PM,67.3,56.3,68,29.93,10.0,South,3.5,-,N/A,,Clear,170,2013-03-18 00:55:00
8:15 PM,67.3,57.0,70,29.93,10.0,SSE,3.5,-,N/A,,Clear,160,2013-03-18 01:15:00
8:35 PM,65.1,55.4,71,29.93,10.0,SSE,3.5,-,N/A,,Clear,150,2013-03-18 01:35:00
8:55 PM,64.8,55.6,72,29.93,10.0,South,4.6,-,N/A,,Clear,170,2013-03-18 01:55:00
9:15 PM,64.8,56.3,74,29.94,10.0,South,3.5,-,N/A,,Clear,170,2013-03-18 02:15:00
9:35 PM,63.5,55.8,76,29.94,10.0,SSE,3.5,-,N/A,,Clear,150,2013-03-18 02:35:00
9:55 PM,63.1,55.8,77,29.94,10.0,Calm,Calm,-,N/A,,Clear,0,2013-03-18 02:55:00
10:15 PM,62.6,55.9,79,29.94,10.0,SE,4.6,-,N/A,,Clear,140,2013-03-18 03:15:00
10:35 PM,62.2,55.9,80,29.94,10.0,South,3.5,-,N/A,,Clear,170,2013-03-18 03:35:00
10:55 PM,62.2,56.5,81,29.94,10.0,SSE,3.5,-,N/A,,Clear,160,2013-03-18 03:55:00
11:15 PM,62.2,57.0,83,29.94,10.0,Calm,Calm,-,N/A,,Mostly Cloudy,0,2013-03-18 04:15:00
11:35 PM,62.2,57.6,85,29.94,10.0,Calm,Calm,-,N/A,,Overcast,0,2013-03-18 04:35:00
11:55 PM,62.2,57.7,85,29.94,10.0,Calm,Calm,-,N/A,,Overcast,0,2013-03-18 04:55:00